Miscellaneous Local Product
Issued by NWS North Platte, NE

Home | Current Version | Previous Version | Text Only | Print | Product List | Glossary On
Versions: 1 2 3 4 5 6 7 8 9 10 11 12 13 14 15 16 17 18 19 20 21 22 23 24 25 26 27 28 29 30 31 32 33 34 35 36 37 38 39 40 41 42 43 44 45 46 47 48 49 50
000
AXUS43 KLBF 290310
MISLBF


WESTERN AND NORTH CENTRAL NEBRASKA HOURLY WEATHER ROUNDUP
NATIONAL WEATHER SERVICE NORTH PLATTE NE
1000 PM CDT THU MAY 28 2015

***STATIONS NOT REPORTING VARIABLES SUCH AS SKY/WEATHER OR
PRESSURE ARE PROVIDED BY THE NEBRASKA DEPARTMENT OF
ROADS...RAWS...AND APRS NETWORKS...AND ARE NOT UNDER
NATIONAL WEATHER SERVICE QUALITY CONTROL***

...OBSERVATIONS IN AND NEAR THE EASTERN PANHANDLE OF NEBRASKA...

CITY           SKY/WX    TMP DP  RH WIND       PRES   REMARKS
PINE RIDGE     CLOUDY    56  52  86 CALM      29.98S
CHADRON        CLOUDY    57  53  86 NE6       30.00R
ALLIANCE       CLOUDY    56  53  90 E14       29.98F
SIDNEY         CLOUDY    54  51  90 SW9       30.01R
WHITECLAY        N/A     55  51  86 CALM        N/A
BIG SPRINGS      N/A     58  54  86 S5          N/A
$$

...OBSERVATIONS IN NORTH CENTRAL NEBRASKA...

CITY           SKY/WX    TMP DP  RH WIND       PRES   REMARKS
VALENTINE      CLOUDY    65  55  70 N12       29.94R
THEDFORD       CLOUDY    62  56  81 NE7       29.91S
AINSWORTH      CLOUDY    64  57  80 S14       29.91R
O`NEILL        CLOUDY    70  62  74 S5        29.89R THUNDER
ORD            CLOUDY    68  63  84 SE7       29.87F
BROKEN BOW     LGT RAIN  61  57  87 NW15      29.94R
BROWNLEE         N/A     64  57  80 W12         N/A
VALENTINE NWR    N/A     63  59  88 CALM        N/A
SPRINGVIEW       N/A     62  57  85 CALM        N/A
HALSEY           N/A     57  55  94 SE5G20      N/A
ROSE             N/A     64  63  97 SW12        N/A
NEWPORT          N/A     65  60  82 S6          N/A
SARGENT          N/A     65  56  74 W12G20      N/A
COMSTOCK         N/A     76  67  73 S10         N/A
EWING            N/A     67  62  83 NW7G15      N/A
$$

...OBSERVATIONS IN SOUTHWEST NEBRASKA AND FAR NORTHEAST COLORADO...

CITY           SKY/WX    TMP DP  RH WIND       PRES   REMARKS
WRAY           FAIR      57  51  82 CALM      30.00R
HOLYOKE        FAIR      59  52  77 SW7       29.98R
IMPERIAL       CLOUDY    56  52  86 S7        29.93R
OGALLALA       CLOUDY    59  54  82 W3        29.95R
NORTH PLATTE   LGT RAIN  58  55  90 E13       29.91F
MCCOOK         CLOUDY    57  55  93 SE7       29.93F
LEXINGTON      CLOUDY    60  56  84 NW15      29.94F
PAXTON           N/A     59  54  83 CALM        N/A
GOTHENBURG       N/A     58  53  84 W3          N/A
CALLAWAY         N/A     59  57  92 S12         N/A
$$

...NORTH PLATTE AREA...

CITY           SKY/WX    TMP DP  RH WIND       PRES   REMARKS
AIRPORT        LGT RAIN  58  55  90 E13       29.91F
DOWNTOWN         N/A     58  54  87 CALM        N/A
$$

...SOME WEATHER OBSERVATIONS FROM AROUND THE REGION...

CITY           SKY/WX    TMP DP  RH WIND       PRES   REMARKS
DENVER         TSTM      56  49  77 E10       30.09R
LARAMIE        MOCLDY    49  35  58 NW5       30.16R
CHEYENNE       CLOUDY    56  37  49 N6        30.12R
SCOTTSBLUFF    TSTM      57  51  80 NW12G23   30.08R
RAPID CITY     CLOUDY    56  52  86 W9        29.96R
PIERRE         CLOUDY    61  58  90 S6        29.86R
WINNER         CLOUDY    65  57  75 SW9       29.88R
SIOUX FALLS    CLOUDY    67  59  75 S13       29.89R
OMAHA          CLOUDY    69  64  84 SE9       29.94R
GRAND ISLAND   CLOUDY    71  60  68 S9        29.91F
KANSAS CITY    CLOUDY    68  66  93 SE12      29.98F
WICHITA        MOCLDY    73  66  78 SE9       29.94R
HAYS           CLOUDY    61  52  72 E3        29.96F
LIBERAL        CLOUDY    63  52  67 W6        29.85F
GOODLAND       CLOUDY    57  51  80 E8        30.00S
$$



USA.gov is the U.S. government's official web portal to all federal, state and local government web resources and services.